Miscellaneous Local Product
Issued by NWS North Platte, NE

Home | Current Version | Previous Version | Text Only | Print | Product List | Glossary On
Versions: 1 2 3 4 5 6 7 8 9 10 11 12 13 14 15 16 17 18 19 20 21 22 23 24 25 26 27 28 29 30 31 32 33 34 35 36 37 38 39 40 41 42 43 44 45 46 47 48 49 50
118
AXUS43 KLBF 201710
MISLBF


WESTERN AND NORTH CENTRAL NEBRASKA HOURLY WEATHER ROUNDUP
NATIONAL WEATHER SERVICE NORTH PLATTE NE
1200 PM CDT SUN MAY 20 2018

NOTE: "FAIR" INDICATES FEW OR NO CLOUDS BELOW 12,000 FEET WITH NO
SIGNIFICANT WEATHER AND/OR OBSTRUCTIONS TO VISIBILITY.

NOTE: STATIONS NOT REPORTING VARIABLES SUCH AS SKY/WEATHER OR
PRESSURE ARE PROVIDED BY RAWS AND APRS NETWORKS AND ARE NOT UNDER
NATIONAL WEATHER SERVICE QUALITY CONTROL.

...OBSERVATIONS IN AND NEAR THE EASTERN PANHANDLE OF NEBRASKA...

CITY           SKY/WX    TMP DP  RH WIND       PRES   REMARKS
PINE RIDGE     PTSUNNY   56  35  45 E5        30.25S
GORDON         FAIR      55  35  46 CALM      30.24F
CHADRON        PTSUNNY   55  36  48 SE6       30.24F
ALLIANCE       MOSUNNY   54  35  48 E5        30.24S
SIDNEY         SUNNY     53  35  50 VRB3      30.25S
CRESCENT LAKE    N/A     54  38  53 N5G12       N/A
$$

...OBSERVATIONS IN NORTHERN NEBRASKA AND FAR SOUTHERN SOUTH DAKOTA...

CITY           SKY/WX    TMP DP  RH WIND       PRES   REMARKS
WINNER         FAIR      60  38  43 N15G21    30.22F
VALENTINE      CLOUDY    56  38  50 NE8       30.23F
AINSWORTH      CLOUDY    54  43  66 N8        30.22S
O`NEILL        CLOUDY    54  47  78 N10       30.22S
THEDFORD       PTSUNNY   56  45  65 N8        30.22S
BROKEN BOW     CLOUDY    55  48  77 N10       30.19S
ORD            LGT RAIN  52  51  97 N10       30.19R FOG
ALBION         CLOUDY    54  52  94 N9        30.19S FOG
VALENTINE NWR    N/A     53  39  60 N6          N/A
HALSEY           N/A     57  43  60 N6          N/A
BUTTE            N/A     52  44  73 NE8         N/A
CHAMBERS         N/A     55  47  75 N5          N/A
EWING            N/A     52  50  92 NE3         N/A
$$

...OBSERVATIONS IN SOUTHWEST NEBRASKA AND FAR NORTHEAST COLORADO...

CITY           SKY/WX    TMP DP  RH WIND       PRES   REMARKS
WRAY           FAIR      57  41  54 N12       30.22F
HOLYOKE        FAIR      59  41  51 N8        30.24F
IMPERIAL       CLOUDY    55  43  63 NW7       30.22S
OGALLALA       CLOUDY    58  42  55 N6        30.22S
NORTH PLATTE   CLOUDY    56  46  69 NE8       30.21S
MCCOOK         CLOUDY    54  49  83 N10       30.20R
LEXINGTON      CLOUDY    55  51  86 N9        30.19S
STAPLETON        N/A     57  46  68 CALM        N/A
GOTHENBURG       N/A     52  46  79 N6          N/A
CALLAWAY         N/A     53  49  86 NE7         N/A
$$

...OBSERVATIONS IN CENTRAL LINCOLN COUNTY AREA...

CITY           SKY/WX    TMP DP  RH WIND       PRES   REMARKS
N.P. AIRPORT   CLOUDY    56  46  69 NE8       30.21S
N.P. DOWNTOWN    N/A     55  47  76 NE5         N/A
N.P. SOUTHEAST   N/A     56  47  70 N3          N/A
$$

...OBSERVATIONS ACROSS THE ROCKIES AND WESTERN HIGH PLAINS...

CITY           SKY/WX    TMP DP  RH WIND       PRES   REMARKS
RAPID CITY     SUNNY     56  36  47 S8        30.24F
SCOTTSBLUFF    SUNNY     55  40  56 S7        30.24F
CHEYENNE       CLOUDY    43  41  93 S10       30.23F
DENVER         CLOUDY    49  41  74 E5        30.23F
BERTHOUD PASS  FAIR      34  25  69 NW28      30.39S WCI  20
COPPER MTN     SUNNY     45  27  49 S5        30.40F
MONARCH PASS   MOSUNNY   43  28  56 MISG      30.51S
ASPEN          SUNNY     64  32  30 N7        30.15F
STEAMBOAT      FAIR      54  44  68 SW3       30.16S
LARAMIE        SUNNY     51  38  60 SE17      30.18F
CASPER         MOSUNNY   49  42  77 CALM      30.18F
$$

...OBSERVATIONS ACROSS THE NORTHERN PLAINS...

CITY           SKY/WX    TMP DP  RH WIND       PRES   REMARKS
BISMARCK       SUNNY     63  34  33 SE13      30.28F
FARGO          FAIR      64  36  35 CALM      30.27F
PIERRE         SUNNY     61  38  42 N10       30.23F
SIOUX FALLS    CLOUDY    52  43  71 NE9       30.21F
$$

...OBSERVATIONS ACROSS THE CENTRAL AND SOUTHERN PLAINS...

CITY           SKY/WX    TMP DP  RH WIND       PRES   REMARKS
OMAHA          LGT RAIN  57  52  83 N7        30.14R
GRAND ISLAND   CLOUDY    55  53  93 N12       30.17S
KANSAS CITY    CLOUDY    68  64  87 NW7       30.06S
WICHITA        LGT RAIN  58  58 100 NW7       30.11R
DODGE CITY     CLOUDY    61  47  59 N14       30.16S
OKLAHOMA CITY  CLOUDY    66  60  81 N10       30.09S
DALLAS         LGT RAIN  69  67  93 SE12      30.05F
AMARILLO       SUNNY     61  46  57 NE14      30.21F
$$




USA.gov is the U.S. government's official web portal to all federal, state and local government web resources and services.